TimePDT,TemperatureF,Dew PointF,Humidity,Sea Level PressureIn,VisibilityMPH,Wind Direction,Wind SpeedMPH,Gust SpeedMPH,PrecipitationIn,Events,Conditions,WindDirDegrees,DateUTC
12:32 AM,41.0,33.8,76,30.15,10.0,West,3.5,-,0.00,Rain,Light Rain,280,2013-03-17 07:32:00
12:48 AM,42.8,33.8,70,30.15,10.0,Calm,Calm,-,0.00,,Overcast,0,2013-03-17 07:48:00
12:53 AM,42.1,34.0,73,30.15,10.0,WSW,3.5,-,0.00,,Overcast,250,2013-03-17 07:53:00
1:00 AM,42.8,33.8,70,30.15,10.0,WSW,4.6,-,N/A,,Overcast,250,2013-03-17 08:00:00
1:50 AM,41.0,33.8,76,30.17,10.0,WSW,4.6,-,N/A,,Overcast,250,2013-03-17 08:50:00
1:53 AM,41.0,34.0,76,30.17,10.0,WSW,4.6,-,N/A,,Overcast,240,2013-03-17 08:53:00
2:53 AM,42.1,33.1,70,30.20,10.0,WSW,8.1,-,0.00,,Overcast,240,2013-03-17 09:53:00
3:08 AM,42.8,33.8,70,30.21,10.0,SW,5.8,-,0.00,Rain,Light Rain,220,2013-03-17 10:08:00
3:34 AM,41.0,33.8,76,30.21,10.0,SSW,6.9,-,0.00,,Overcast,210,2013-03-17 10:34:00
3:53 AM,41.0,34.0,76,30.22,10.0,WSW,6.9,-,0.00,,Overcast,240,2013-03-17 10:53:00
4:53 AM,39.0,34.0,82,30.23,10.0,WSW,3.5,-,0.01,,Mostly Cloudy,250,2013-03-17 11:53:00
5:53 AM,39.9,34.0,79,30.24,10.0,SSW,5.8,-,0.00,Rain,Light Rain,200,2013-03-17 12:53:00
6:53 AM,39.0,34.0,82,30.27,10.0,South,4.6,-,0.00,,Mostly Cloudy,170,2013-03-17 13:53:00
7:53 AM,39.0,33.1,79,30.29,10.0,Calm,Calm,-,N/A,,Overcast,0,2013-03-17 14:53:00
8:53 AM,39.9,33.1,77,30.30,10.0,SSW,3.5,-,N/A,,Clear,210,2013-03-17 15:53:00
9:53 AM,43.0,34.0,71,30.31,10.0,SSW,4.6,-,N/A,,Mostly Cloudy,210,2013-03-17 16:53:00
10:53 AM,44.1,34.0,68,30.31,10.0,WNW,8.1,-,N/A,,Mostly Cloudy,290,2013-03-17 17:53:00
11:53 AM,46.0,32.0,58,30.29,10.0,West,6.9,-,N/A,,Mostly Cloudy,260,2013-03-17 18:53:00
12:53 PM,46.9,30.9,54,30.28,10.0,West,6.9,-,N/A,,Partly Cloudy,280,2013-03-17 19:53:00
1:53 PM,50.0,32.0,50,30.27,10.0,NW,13.8,17.3,N/A,,Mostly Cloudy,320,2013-03-17 20:53:00
2:53 PM,48.0,32.0,54,30.25,10.0,NW,5.8,-,N/A,,Overcast,310,2013-03-17 21:53:00
3:53 PM,46.9,34.0,61,30.25,10.0,North,4.6,-,N/A,,Overcast,360,2013-03-17 22:53:00
4:53 PM,48.0,33.1,56,30.25,10.0,NW,10.4,-,0.00,Rain,Light Rain,310,2013-03-17 23:53:00
5:53 PM,46.9,33.1,59,30.26,10.0,West,11.5,-,0.00,,Overcast,280,2013-03-18 00:53:00
6:53 PM,46.0,30.9,56,30.25,10.0,NW,5.8,-,0.00,,Overcast,320,2013-03-18 01:53:00
7:53 PM,46.0,30.9,56,30.26,10.0,NW,5.8,-,N/A,,Overcast,310,2013-03-18 02:53:00
8:53 PM,44.1,32.0,63,30.26,10.0,NNW,3.5,-,N/A,,Overcast,330,2013-03-18 03:53:00
9:53 PM,44.1,32.0,63,30.28,10.0,Calm,Calm,-,N/A,,Overcast,0,2013-03-18 04:53:00
10:53 PM,44.1,32.0,63,30.28,10.0,Calm,Calm,-,N/A,,Overcast,0,2013-03-18 05:53:00
11:53 PM,42.1,32.0,67,30.27,10.0,Calm,Calm,-,N/A,,Overcast,0,2013-03-18 06:53:00